Location: ??????????
(54.7560°N, 39.1389°E)
Time: 13:10:22
(UTC+00:00)

PSLV R/B - Pass Details

Date: 19 May 2025
Orbit: 586 x 683 km, 97.9° (Epoch: 19 June)

Event Time Altitude Azimuth Distance (km) Brightness Sun altitude
Rises 21:01:04 0° 16° (NNE) 2,858 8.3 -15.2°
Reaches altitude 10° 21:03:17 10° 20° (NNE) 1,941 7.2 -15.2°
Maximum altitude 21:07:28 65° 102° (ESE) 653 3.6 -15.2°
Enters shadow 21:09:33 28° 177° (S) 1,122 4.3 -15.2°
